FENGYUN 1C DEB, 37017

Orbit data source: Space-Track

FENGYUN 1C DEB, 37017 is space debris in SSO originally from a launch on Mon, 10 May 1999 UTC launched from the Taiyaun Space Center, China (TSC). Fengyun 1C debris stems from the Chinese weather satellite Fengyun-1C, which was intentionally destroyed by a Chinese anti-satellite missile in 2007. This event dramatically increased the amount of space debris, with thousands of trackable fragments posing hazards to satellites and human spaceflight. The Fengyun 1C debris cloud has become a focal point in discussions about space sustainability and the need for international regulations to prevent the creation of new debris.

Loading next visibility...
Identifier
37017, 1999-025ECZ
Orbit
SSO
Country
Flag of CNCN / PRC
Related business
Manufacturer
Unknown
Mission
Spacecraft
Bus & Motor
Unknown
Mass
Unknown
Launch date (UTC)
1999-05-10 (27 years ago)
Launch vehicle
Unknown
Launch site
Taiyaun Space Center, China (TSC)
Object type
Payload
Rocket body
Debris
Shape & HBR
Unknown shape, 0.1 m
Radar Cross Section
Small (<0.1 m²)

Expand to show TLE details & history
Last TLE update: 3 days ago

TLE from 3 days ago
0 FENGYUN 1C DEB
1 37017U 99025ECZ 26252.14399760  .00003436  00000-0  66026-3 0  9998
2 37017  98.8155 210.6705 0271015 278.2954  78.7591 14.43562078650592
Epoch: 2026-09-09T03:27Z
TLE epoch observation values (Epoch: 2026-09-09T03:27:21.392Z)
Latitude
-0.00008°
Longitude
170.6311°
Altitude
717.124 km
Speed
7.514 km/s
True Right ascension
14h 02m 40s
True Declination
0° 00' 00"
Sunlit
Object was in daylight at epoch
Visualization orbit readout
Latitude
Unknown
Longitude
Unknown
Altitude
Unknown
Speed
Unknown
Apparent Right ascension
Unknown
Apparent Declination
Unknown
Sunlit
N/A
Visualization observer readout
Local Sidereal Time
12:59:23
Azimuth
Unknown
Elevation
Unknown
Doppler factor
Unknown
Orbital elements
Apogee altitude
936.9 km
Perigee altitude
550.865 km
Semi-major axis
7,122.02 km
Eccentricity
0.0271
Inclination
98.8155°
RAAN
210.6705°
Arg. of periapsis
278.2954°
True anomaly
81.82391°
Mean anomaly
78.7591°
Eccentric anomaly
80.28965°
Mean motion
3.61109 °/min
Orbital period
99.69 mins
BSTAR
0.00066026
Loading maneuver chart data...
Computing Atmospheric mass density...
Loading historical data...
Loading historical data...
Loading historical data...
Loading historical data...
Loading historical data...
Loading historical data...
Loading historical data...

Documentation

Showing up to 5 results
|